Retour au catalogue

STARLINK-32168

ActifCommunicationsVLEO
NORAD 60335·PAYLOAD·🇺🇸 United States

Lancé Aug 2, 2024 depuis Cape Canaveral Space Force Station

Loading…

Prochains Passages (prochaines 24 heures)

TLE

FraisSource: CelesTrak SupGP

Époque: Sep 14, 2026, 22:30 UTC

1 60335C 24136G   26257.93798611  .00047972  00000+0  14175-2 0  2574
2 60335  53.1579 275.8918 0001249  91.4354 127.4617 15.34362785    14

Suivez STARLINK-32168 en temps réel avec AllMySat

Download on the App Store